Regional Weather Roundup
Issued by NWS Newport/Morehead, NC

Current Version | Previous Version | Graphics & Text | Print | Product List | Glossary Off
Versions: 1 2 3 4 5 6 7 8 9 10 11 12 13 14 15 16 17 18 19 20 21 22 23 24 25 26 27 28 29 30 31 32 33 34 35 36 37 38 39 40 41 42 43 44 45 46 47 48 49 50

000
ASUS42 KMHX 311822
RWRMHX
WEATHER ROUNDUP FOR EASTERN NORTH CAROLINA
NATIONAL WEATHER SERVICE NEWPORT/MOREHEAD CITY NC
200 PM EDT THU JUL 31 2014

NOTE: "FAIR" INDICATES FEW OR NO CLOUDS BELOW 12,000 FEET
WITH NO SIGNIFICANT WEATHER AND/OR OBSTRUCTIONS TO VISIBILITY

NCZ015>017-031-032-045>047-102-103-311900-
NORTH COAST

CITY           SKY/WX    TMP DP  RH WIND       PRES   REMARKS
EDENTON        MOSUNNY   82  65  57 SE3       30.14S
ELIZABETH CITY PTSUNNY   81  63  54 E8        30.14S
KITTY HAWK     MOCLDY    83  59  44 NE5       30.14S
MANTEO         NOT AVBL

$$

NCZ045>047-081-094-103-104-311900-
CENTRAL COAST

CITY           SKY/WX    TMP DP  RH WIND       PRES   REMARKS
FRISCO         NOT AVBL
SWANQUARTER      N/A     84 N/A N/A NE9       30.09S

$$

NCZ095-097-098-100-101-311900-
SOUTHERN COAST

CITY           SKY/WX    TMP DP  RH WIND       PRES   REMARKS
BEAUFORT       MOSUNNY   85  67  54 E9        30.13R
CEDAR ISLAND     N/A     84 N/A N/A NE10      30.18S
JACKSONVILLE   MOSUNNY  N/A N/A N/A SE12      30.11F
NEWPORT        NOT AVBL
PINEY ISLAND   MOCLDY    84  69  60 E10       30.13S
WILMINGTON     PTSUNNY   86  69  56 E13       30.11S


$$

NCZ011>013-027>030-043-044-078>080-089-090>093-098-311900-
COASTAL PLAIN

CITY           SKY/WX    TMP DP  RH WIND       PRES   REMARKS
AHOSKIE        PTSUNNY   81  64  56 CALM      30.14S
CLINTON        PTSUNNY   85  68  56 E6        30.12S
ELIZABETHTOWN  PTSUNNY   86  65  50 E8        30.10S
GOLDSBORO      CLOUDY    83  69  61 E8        30.11S
GREENVILLE     PTSUNNY   82  63  51 E6        30.14F
HAVELOCK       PTSUNNY   83  68  60 E7        30.13S
KENANSVILLE    PTSUNNY   83  64  53 E6        30.13S
KINSTON        PTSUNNY   84  63  48 NE6       30.13F
NEW BERN       PTSUNNY   86  65  49 SE9       30.14S
RICHLANDS      PTSUNNY   86  66  51 E9        30.12S
ROANOKE RAPIDS NOT AVBL
ROCKY MOUNT    PTSUNNY   83  66  56 VRB5      30.14S
WASHINGTON     PTSUNNY   82  65  56 SE6       30.13F
WHITEVILLE     PTSUNNY   87  65  48 E8        30.09S

$$

AMZ130-135-150-152-154-156-158-170-250-252-270-ANZ085-086-088-633-658-670-311900-
MARINE OBSERVATIONS

STATION/POSITION TIME  TEMP    WIND        PRES    WAVE   SWELL
                       AIR SEA DIR/SP/G            HT/PER HT/PER
                 (UTC) (F)     (DEG/KT/KT) (MB)    (FT/S) (FT/S)
CHESAPEAKE LIGHT NOT AVBL
BUOY 44014       1800   77 81  340/  2/  4 1020.7    2/ 7   2/ 7
DUCK             1800   82 77   90/  4/  5 1020.2
2E DUCK          1800                        N/A     2/ 9
OREGON INLET     1800   78 78   50/  6/  9 1020.8
BUOY 44095       1800      78                N/A     3/ 8
20E OREGON INLET NOT AVBL
HATTERAS CG      1800   81 79   60/  7/ 11 1020.9
DIAMOND BUOY     1800          VRB 12/ 14  1020.1    3/ 7   3/ 7
CAPE LOOKOUT     1800   80      70/ 11/ 13 1020.2
BEAUFORT LAB     1800   81 81  130/ 10/ 14 1019.7
30 SE NEW RIVER  1800   81 81   80/ 14/ 16 1019.8    4/ 7   3/ 7
5 SE WRIGHTSVILL 1800   78 81   80/ 14/ 16   N/A
BUOY 41002       1749   80 81  170/ 10/ 14 1018.9    4/ 6   3/ 6
BUOY 41004       1800   83 83   80/ 17/ 19 1016.3    4/ 4   2/ 7

$$


USA.gov is the U.S. government's official web portal to all federal, state and local government web resources and services.